Regional Weather Roundup
Issued by NWS

Home | Current Version | Previous Version | Graphics & Text | Print | Product List | Glossary On
Versions: 1 2 3 4 5 6 7 8 9 10 11 12 13 14 15 16 17 18 19 20 21 22 23 24 25 26 27 28 29 30 31 32 33 34 35 36 37 38 39 40 41 42 43 44 45 46 47 48 49 50
000
ASUS43 KLOT 040121
RWRIL

ILLINOIS REGIONAL WEATHER ROUNDUP
NATIONAL WEATHER SERVICE CHICAGO/ROMEOVILLE IL
800 PM CDT FRI JUL 03 2015

NOTE: "FAIR" INDICATES FEW OR NO CLOUDS BELOW 12,000 FEET WITH NO
SIGNIFICANT WEATHER AND/OR OBSTRUCTIONS TO VISIBILITY.

* THESE STATIONS ARE NOT UNDER NWS QUALITY CONTROL. THEY ALSO MAY NOT
  REPORT WEATHER SUCH AS PRECIPITATION OR FOG.

ILZ001-002-007-009-015-016-024-040200-
NORTHWEST ILLINOIS

CITY           SKY/WX    TMP DP  RH WIND       PRES   REMARKS
MOLINE         CLEAR     73  61  65 CALM      29.92S
STERLING*      CLEAR     70  61  73 CALM      29.93S
SAVANNA*       CLEAR     72  57  60 N3        29.93S
$$

ILZ003-004-008-010-011-017-018-040200-
NORTH CENTRAL ILLINOIS

CITY           SKY/WX    TMP DP  RH WIND       PRES   REMARKS
ROCKFORD       PTCLDY    73  58  59 W5        29.93F
FREEPORT*      CLEAR     69  59  71 W3        29.95S
ROCHELLE*      PTCLDY    71  59  65 NW3       29.93S
DE KALB*       PTCLDY    69  57  65 W5        29.93S
PERU*          CLEAR     73  58  60 NW3       29.92S
$$

ILZ005-006-012>014-019>023-040200-
NORTHEAST ILLINOIS

CITY           SKY/WX    TMP DP  RH WIND       PRES   REMARKS
CHICAGO-OHARE  MOCLDY    70  49  47 E7        29.91S
CHICAGO-MIDWAY MOCLDY    71  53  52 E8        29.92S
AURORA         CLEAR     73  61  65 NW3       29.92S
LANSING*       CLEAR     67  51  57 NE5       29.93S
JOLIET*        PTCLDY    71  59  66 E3        29.91S
WAUKEGAN       CLEAR     64  55  72 SE3       29.91F
DUPAGE AIRPORT PTCLDY    72  55  55 E5        29.91S
KANKAKEE*      CLEAR     70  60  71 NE6       29.92R
WHEELING       CLEAR     68  52  56 E5        29.93F
MORRIS*        CLEAR     72  61  70 NW5       29.90S
ROMEOVILLE*    CLEAR     69  53  56 E6        29.91S
NORTHERLY ISL    N/A     64  57  78 NE2         N/A
$$

LMZ740>746-040200-
SOUTHERN LAKE MICHIGAN

STATION/POSITION SKY/WX   TEMP    WIND        PRES    VSBY  WAVE
                          AIR SEA DIR/SP/G                  HT/PER
                          (F)     (DEG/KT/KT) (MB)    (MI)  (FT/S)
HARRISON CRIB              63      80/  7/  8   N/A
BURNHAM HARBOR             63      40/  2/  4   N/A
CALUMET HARBOR             64      40/  3/  4   N/A
BURNS HARBOR               66      40/  7/  8 1014.2R
MICHIGAN CITY              63      50/  5/  5   N/A
MICHIGAN CITY 6N           64 64   80/  4/  4   N/A           1/ 3
ST. JOSEPH                 62 63                N/A           1
$$

ILZ025>027-034>036-040-047-049-050-058-095>099-040200-
WEST-CENTRAL ILLINOIS

CITY           SKY/WX    TMP DP  RH WIND       PRES   REMARKS
QUINCY         CLEAR     74  63  68 N5        29.92R
GALESBURG*     CLEAR     71  63  75 N5        29.93R
MACOMB*        CLEAR     73  65  76 N3        29.94S
JACKSONVILLE*  CLEAR     75  68  79 CALM      29.90S
PITTSFIELD*    CLEAR     76  64  66 CALM      29.92S
$$

ILZ028>032-037-038-041>044-048-051>054-059>061-040200-
CENTRAL ILLINOIS

CITY           SKY/WX    TMP DP  RH WIND       PRES   REMARKS
PONTIAC        CLEAR     71  62  74 NE3       29.92S
BLOOMINGTON    CLEAR     73  63  71 NE6       29.92S
DECATUR        CLEAR     71  65  81 NE5       29.91R
PEORIA         CLEAR     76  59  55 N3        29.91S
LACON*         CLEAR     71  61  70 CALM      29.91S
LINCOLN*       CLEAR     73  64  72 CALM      29.90S
SPRINGFIELD    CLEAR     76  65  68 NE5       29.90S
TAYLORVILLE    PTCLDY    72  64  78 NE5       29.90S
$$

ILZ033-039-045-046-055>057-062-063-040200-
EAST-CENTRAL ILLINOIS

CITY           SKY/WX    TMP DP  RH WIND       PRES   REMARKS
CHAMPAIGN      CLEAR     71  62  73 N3        29.91S
DANVILLE*      CLEAR     69  63  83 N5        29.88S
RANTOUL*       CLEAR     74  63  69 CALM      29.91S
MATTOON        CLEAR     72  65  78 N8        29.89R
PARIS*         CLEAR     73  65  77 N3        29.90S
$$

ILZ079-100>102-040200-
SOUTHWEST ILLINOIS

CITY           SKY/WX    TMP DP  RH WIND       PRES   REMARKS
BELLEVILLE     CLEAR     76  69  79 N2        29.88R
CAHOKIA*       PTCLDY    78  67  68 NE8       29.89R HX  80
SPARTA*        PTCLDY    76  68  76 CALM      29.90R
$$

ILZ064>066-069>071-074>076-080>082-084>086-088>090-092>094-040200-
SOUTH-CENTRAL ILLINOIS

CITY           SKY/WX    TMP DP  RH WIND       PRES   REMARKS
CARBONDALE     PTCLDY    78  66  66 CALM      29.88R HX  80
CAIRO*         CLOUDY    73  71  92 CALM      29.88S
EFFINGHAM*     CLEAR     74  63  67 CALM      29.91R
MARION         MOCLDY    79  68  69 NE7       29.89R HX  81
MT. VERNON     MOCLDY    73  64  73 CALM      29.89S
CENTRALIA*     CLEAR     74  67  80 CALM      29.89S
SALEM*         CLEAR     77  68  73 CALM      29.89R
METROPOLIS*    LGT RAIN  76  72  87 CALM      29.89S
$$

ILZ067-068-072-073-078-083-087-091-040200-
SOUTHEAST ILLINOIS

CITY           SKY/WX    TMP DP  RH WIND       PRES   REMARKS
LAWRENCEVILLE  MOCLDY    74  68  81 NE6       29.88S
FLORA*         CLEAR     73  67  79 N3        29.89R
FAIRFIELD*     CLEAR     73  70  91 CALM      29.87R
HARRISBURG*    PTCLDY    76  69  78 N5        29.89R
ROBINSON*      PTCLDY    73  65  76 NE6       29.89S
CARMI*         CLEAR     74  63  68 N3        29.87S
$$

ABBREVIATIONS USED IN REMARKS
   TC - TEMPERATURE IN CELSIUS
  WCI - WIND CHILL INDEX
   HX - HEAT INDEX
  VSB - VISIBILITY
$$




USA.gov is the U.S. government's official web portal to all federal, state and local government web resources and services.